Weather History for PAQT - March, 2014

Change the Weather History Date:

Sunday, March 30, 2014

  Actual Average (PAKU) Record (PAKU)
Temperature  
Mean Temperature -4 °F -  
Max Temperature 0 °F -2 °F 19 °F (2007)
Min Temperature -9 °F -13 °F -38 °F (1985)
Degree Days  
Heating Degree Days 70    
Moisture  
Dew Point -6 °F    
Average Humidity 92    
Maximum Humidity 100    
Minimum Humidity 82    
Precipitation  
Precipitation 0.00 in - - ()
Sea Level Pressure  
Sea Level Pressure 30.17 in    
Wind  
Wind Speed 5 mph (East)    
Max Wind Speed 12 mph    
Max Gust Speed -    
Visibility 3 miles    
Events Fog , Snow    
Averages and records for this station are not official NWS values.
T = Trace of Precipitation, MM = Missing Value Source: NWS Daily Summary

Daily Weather History Graph

Daily Weather History Graph

Search for Another Location

Airport or City:

Trip Planner

Search our weather history database for the weather conditions in past years. The results will help you decide how hot, cold, wet, or windy it might be!

Date:

Astronomy

Mar. 30, 2014 Rise Set
Actual Time 7:14 AM AKDT 9:04 PM AKDT
Civil Twilight 6:08 AM AKDT 10:11 PM AKDT
Nautical Twilight 4:34 AM AKDT 11:47 PM AKDT
Astronomical Twilight Sun does not set Sun does not set
Moon 7:04 AM AKDT (3/30) 9:53 PM AKDT (3/30)
Length of Visible Light 16h 02m
Length of Day
13h 49m
New Moon, 0% of the Moon is Illuminated
Mar 30
New Moon
Apr 7
First Quarter
Apr 14
Full
Apr 21
Last Quarter
Apr 28
New

Hourly Weather History & Observations

Time (AKDT) Temp. Windchill Dew Point Humidity Pressure Visibility Wind Dir Wind Speed Gust Speed Precip Events Conditions
12:08 AM -5.1 °F -13.6 °F -5.1 °F 100% 30.07 in 1.0 mi SSE 3.5 mph - N/A   Overcast
12:15 AM -5.1 °F -13.6 °F -5.1 °F 100% 30.08 in 0.5 mi SSE 3.5 mph - N/A Fog Light Freezing Fog
12:53 AM -5.1 °F -15.8 °F -5.1 °F 100% 30.09 in 1.0 mi SSE 4.6 mph - N/A   Mist
1:53 AM -5.1 °F -15.8 °F -6.0 °F 96% 30.10 in 0.5 mi SSE 4.6 mph - N/A Fog Light Freezing Fog
2:53 AM -5.1 °F - -5.1 °F 100% 30.10 in 0.5 mi Calm Calm - N/A Fog Light Freezing Fog
3:53 AM -5.1 °F -13.6 °F -6.0 °F 96% 30.11 in 1.0 mi South 3.5 mph - 0.00 in   Overcast
4:01 AM -5.1 °F - -5.1 °F 100% 30.11 in 0.8 mi Calm Calm - N/A   Overcast
4:15 AM -5.1 °F - -5.1 °F 100% 30.11 in 1.0 mi Calm Calm - N/A   Mist
4:42 AM -5.1 °F - -7.1 °F 91% 30.11 in 2.0 mi Calm Calm - N/A   Overcast
4:53 AM -5.1 °F - -6.0 °F 96% 30.12 in 3.0 mi Calm Calm - N/A   Overcast
5:20 AM -4.0 °F - -6.0 °F 91% 30.11 in 1.8 mi Calm Calm - N/A   Overcast
5:53 AM -5.1 °F -17.6 °F -6.0 °F 96% 30.12 in 1.2 mi SSW 5.8 mph - N/A   Overcast
6:53 AM -6.0 °F -16.9 °F -7.1 °F 95% 30.13 in 1.2 mi SW 4.6 mph - N/A   Overcast
7:23 AM -6.0 °F -14.7 °F -7.1 °F 95% 30.13 in 0.8 mi WSW 3.5 mph - N/A   Overcast
7:53 AM -5.1 °F -15.8 °F -6.0 °F 96% 30.14 in 0.5 mi WSW 4.6 mph - N/A Fog Light Freezing Fog
8:06 AM -5.1 °F -13.6 °F -6.0 °F 96% 30.13 in 0.5 mi SW 3.5 mph - N/A Fog Light Freezing Fog
8:46 AM -5.1 °F - -6.0 °F 96% 30.14 in 1.0 mi Calm Calm - N/A   Mist
8:53 AM -5.1 °F - -6.0 °F 96% 30.14 in 1.2 mi Calm Calm - N/A   Overcast
9:31 AM -2.9 °F - -2.9 °F 100% 30.15 in 0.8 mi Calm Calm - N/A   Overcast
9:39 AM -2.9 °F - -2.9 °F 100% 30.15 in 1.0 mi Calm Calm - N/A   Mist
9:51 AM -2.2 °F - -2.2 °F 100% 30.15 in 0.5 mi Calm Calm - N/A Fog Light Freezing Fog
9:53 AM -2.0 °F - -2.0 °F 100% 30.15 in 0.5 mi Calm Calm - N/A Fog Light Freezing Fog
10:22 AM -2.0 °F -10.1 °F -2.9 °F 96% 30.15 in 1.0 mi ENE 3.5 mph - N/A   Overcast
10:29 AM -0.9 °F -8.9 °F -2.9 °F 91% 30.16 in 2.0 mi East 3.5 mph - N/A   Overcast
10:46 AM -0.9 °F -11.0 °F -2.0 °F 95% 30.16 in 1.0 mi ESE 4.6 mph - N/A   Overcast
10:53 AM -0.9 °F -12.7 °F -2.0 °F 95% 30.17 in 0.5 mi ESE 5.8 mph - N/A Fog Light Freezing Fog
11:08 AM -0.9 °F -12.7 °F -2.9 °F 91% 30.16 in 2.0 mi East 5.8 mph - N/A   Overcast
11:15 AM -0.9 °F -14.1 °F -2.0 °F 95% 30.16 in 4.0 mi East 6.9 mph - N/A   Overcast
11:53 AM -0.9 °F -14.1 °F -2.9 °F 91% 30.17 in 2.5 mi East 6.9 mph - 0.00 in   Overcast
12:00 PM -0.9 °F -18.3 °F -2.9 °F 91% 30.17 in 2.5 mi ENE 11.5 mph - 0.00 in   Overcast
12:12 PM -2.9 °F -20.8 °F -5.1 °F 90% 30.17 in 4.0 mi ENE 11.5 mph - 0.00 in   Mostly Cloudy
12:31 PM -2.9 °F -18.8 °F -5.1 °F 90% 30.17 in 2.5 mi ENE 9.2 mph - 0.00 in   Mostly Cloudy
12:39 PM -2.9 °F -18.8 °F -5.1 °F 90% 30.17 in 1.5 mi ENE 9.2 mph - 0.00 in Snow Light Snow
12:45 PM -2.9 °F -19.8 °F -6.0 °F 87% 30.18 in 2.5 mi ENE 10.4 mph - 0.00 in   Mostly Cloudy
12:53 PM -2.9 °F -18.8 °F -6.0 °F 87% 30.18 in 5.0 mi ENE 9.2 mph - 0.00 in   Overcast
1:42 PM -2.9 °F -18.8 °F -6.0 °F 87% 30.19 in 10.0 mi East 9.2 mph - N/A   Scattered Clouds
1:53 PM -2.9 °F -17.7 °F -6.0 °F 87% 30.20 in 9.0 mi ENE 8.1 mph - N/A   Clear
2:23 PM -2.9 °F -17.7 °F -6.0 °F 87% 30.20 in 9.0 mi ENE 8.1 mph - N/A   Mostly Cloudy
2:45 PM -2.9 °F -17.7 °F -6.0 °F 87% 30.20 in 2.5 mi ENE 8.1 mph - 0.00 in   Overcast
2:53 PM -2.9 °F -17.7 °F -6.0 °F 87% 30.20 in 4.0 mi ENE 8.1 mph - 0.00 in   Overcast
3:10 PM -2.9 °F -18.8 °F -6.0 °F 87% 30.20 in 1.8 mi ENE 9.2 mph - 0.00 in Snow Light Snow
3:26 PM -2.9 °F -18.8 °F -6.0 °F 87% 30.20 in 2.0 mi ENE 9.2 mph - 0.00 in   Overcast
3:53 PM -2.9 °F -18.8 °F -7.1 °F 82% 30.20 in 2.5 mi ENE 9.2 mph - 0.00 in   Overcast
4:32 PM -2.9 °F -19.8 °F -7.1 °F 82% 30.20 in 3.0 mi ENE 10.4 mph - N/A   Overcast
4:53 PM -2.9 °F -18.8 °F -6.0 °F 87% 30.21 in 2.5 mi ENE 9.2 mph - N/A   Overcast
5:06 PM -2.9 °F -19.8 °F -6.0 °F 87% 30.21 in 3.0 mi East 10.4 mph - N/A   Overcast
5:53 PM -2.9 °F -18.8 °F -6.0 °F 87% 30.22 in 4.0 mi ENE 9.2 mph - 0.00 in   Overcast
6:53 PM -2.9 °F -19.8 °F -6.0 °F 87% 30.23 in 6.0 mi ENE 10.4 mph - N/A   Overcast
7:12 PM -2.9 °F -19.8 °F -6.0 °F 87% 30.23 in 2.5 mi East 10.4 mph - N/A   Overcast
7:51 PM -5.8 °F -22.4 °F -7.6 °F 92% 30.23 in 3.0 mi East 9.2 mph - N/A   Overcast
7:53 PM -5.1 °F -21.5 °F -7.1 °F 91% 30.24 in 3.0 mi ENE 9.2 mph - N/A   Overcast
8:53 PM -7.1 °F -22.8 °F -9.9 °F 87% 30.25 in 9.0 mi ENE 8.1 mph - N/A   Overcast
9:53 PM -7.1 °F -21.4 °F -9.0 °F 91% 30.26 in 10.0 mi ENE 6.9 mph - N/A   Overcast
10:53 PM -8.0 °F -23.9 °F -9.9 °F 91% 30.26 in 10.0 mi East 8.1 mph - N/A   Overcast
11:38 PM -9.9 °F -26.3 °F -11.9 °F 91% 30.27 in 10.0 mi East 8.1 mph - N/A   Mostly Cloudy
11:53 PM -9.0 °F -22.3 °F -11.9 °F 87% 30.28 in 10.0 mi East 5.8 mph - N/A   Overcast